Location: Dreilärchen
(47.9312°N, 8.6113°E)
Time: 22:43:42
(UTC+00:00)

Cosmos 1943 - Pass Details

Date: 26 May 2022
Orbit: 834 x 849 km, 71.0° (Epoch: 02 July)

Event Time Altitude Azimuth Distance (km) Brightness Sun altitude
Exits shadow 02:50:23 - 208° (SSW) 2,796 5.3 -6.8°
Reaches altitude 10° 02:51:15 10° 208° (SSW) 2,469 5.0 -6.7°
Maximum altitude 02:56:56 85° 297° (WNW) 858 3.3 -6.0°
Drops below altitude 10° 03:02:39 10° 27° (NNE) 2,480 6.9 -5.2°
Sets 03:05:06 0° 28° (NNE) 3,417 7.8 -4.9°
